sat.trackr.live / text

‹ back to catalog

STARLINK-3556

NORAD 51877 · 2022-022AB

PAYLOAD ACTIVE UNKNOWN

§ Identity

Operator
Country
US
Launch date
2022-03-03
Launch site
AFETR
Launch vehicle
Mass (kg)
RCS (m²)

Purposes: comms

External: N2YO · Heavens-Above · Gunter

§ Orbital elements

Epoch: 2026-05-25T00:44:04.428384Z

Period
95.44 min
Inclination
53.2139°
Eccentricity
0.0001295
Mean motion
15.08842525 rev/d
Perigee alt
538.8 km
Apogee alt
540.6 km
Semi-major
6,917.9 km
B*
2.9359e-5
RAAN
16.4113°
Arg perigee
81.9525°
Mean anomaly
278.1614°
Rev number
23,477

§ Raw data

STARLINK-35561 51877U 22022AB  26145.03060681  .00000179  00000+0  29359-4 0  99962 51877  53.2139  16.4113 0001295  81.9525 278.1614 15.08842525234778

JSON: /api/v1/satellites/51877 · /tle

For live sub-satellite position, see the globe view (requires WebGL).

§ Visibility from observer

Set your observer location to see the next 7 days of passes ≥ 10°. The values pass through the URL so the page stays shareable.

No JS? Fill the form by hand. The geolocation button needs JavaScript.